Thursday, October 30, 2014
14:31 UTC
  |  Log In   |  Register Free
Airport Search:

Hampton Roads Executive Airport
(KPVG)

Hampton Roads Executive Airport Diagram
No Airport Diagram Available

FAA data valid effective September 18, 2014 - November 13, 2014 (unless otherwise noted).

 
 
 
 
 
 
 
 
 
 
 
 
 
 

Current Aviation Weather for Hampton Roads Executive Airport (KPVG)

The most recent METAR observation for KPVG was updated at: 1415
METAR Summary (Translated METAR)
KPVG
301355Z AUTO 34003KT 10SM CLR 13/12 A3007 RMK AO1
KCPK
301355Z AUTO 32005KT 10SM BKN004 14/14 A3005 RMK AO2
(9.2 nm SE from KPVG)
KSFQ
301355Z AUTO 33004KT 10SM 13/13 A3005 RMK AO2 T01300125
(9.4 nm SW from KPVG)
TAF
No TAF information found within 50 nm of KPVG
  Airport Weather Conditions for KPVG

 Current Weather at PVG
55° F
Fair
North winds at 3.5 mph
PVG NOAA Radar

Pressure: 30.07 in
Humidity: 94%
Wind: North at 3.5 MPH (3 KT)
Dew Point: 53.6°F
Visibility: 10.00 mi


Airport Weather Forecast for KPVG

Translated METAR and TAF for KPVG
Translated METAR for KPVG (1426 UTC 30 October 2014)
found at http://aviationweather.gov/adds/metars/
 
METAR text: KPVG 301415Z AUTO 35004KT 10SM BKN008 13/12 A3006 RMK AO1
Conditions at: KPVG (NORFOLK/HAMPTON , VA, US) observed 1415 UTC 30 October 2014
Temperature: 13.0°C (55°F)
Dewpoint: 12.0°C (54°F) [RH = 94%]
Pressure (altimeter): 30.06 inches Hg (1018.0 mb)
Winds: from the N (350 degrees) at 5 MPH (4 knots; 2.1 m/s)
Visibility: 10 or more miles (16+ km)
Ceiling: 800 feet AGL
Clouds: broken clouds at 800 feet AGL
Weather: automated observation with no human augmentation;
there may or may not be significant weather present at this time
Translated TAF for KPVG

There is no translated TAF available for this airport

Find All Airport Services Find A Hotel Find A Rental Car Find A Golf Course Find A Restaurant $100 Hamburger



FBO's on the Field
FBO Company Facility Photos Services Transportation Aviation Fuel Prices: Prices include tax
Catering Weather Repair Courtesy Rental Type 100LL JetA JetA+ MOGAS 8087
 
Hampton Roads Executive Airport

This FBO has not yet been rated
FS:Shell
Last Updated: Oct-14
Login to update fuel prices
SS:
Contact Hampton Roads Executive AirportMore FBO Information
 
Add another FBO Facility Photos Catering Weather Repair Courtesy Rental Type 100LL JetA JetA+ MOGAS 8087
Services Transportation Aviation Fuel Prices: Prices include tax


model-print
model-print
model-print
model-print